Whidbey Island, WA
on Sunday, February 24, 2013

Sunday
Previous Day Next Day
Daily Summary
 ActualAverageRecord
Temperature
Mean Temperature °F °F  
Max Temperature 46°F 47°F 55°F (2004)
Min Temperature 39°F 33°F 19°F (2011)
Degree Days
Heating Degree Days 22    
Moisture
Dew Point 36°F   
Average Humidity 75    
Maximum Humidity 89    
Minimum Humidity 66    
Precipitation
Precipitation 0.01 in in in ()
Wind
Wind Speed 16 mph   
Max Wind Speed 36 mph   
Max Gust Speed 52 mph   
Visibility 10 miles   
Events Rain   
Averages and records for this station are not official NWS values.
Key: T is trace of precipitation, MM is missing value
Source: NWS Daily Summary
Seasonal Weather Averages
Time(PST)TemperatureDew PointHumidity Pressure Visibility Wind DirectionWind SpeedGust SpeedPrecipitationEvents Conditions
12:11 AM 42.8°F 35.6°F 76% 30.36 in 10.0 miles SW 9.2 mph - 0.00 in   Overcast
12:25 AM 42.8°F 35.6°F 76% 30.36 in 10.0 miles SW 10.4 mph - 0.00 in   Overcast
12:56 AM 41.0°F 35.1°F 79% 30.38 in 8.0 miles SSE 9.2 mph - 0.00 in Rain Light Rain
1:56 AM 39.9°F 36.0°F 86% 30.39 in 10.0 miles East 4.6 mph - 0.01 in Rain Light Rain
2:03 AM 39.2°F 35.6°F 87% 30.37 in 10.0 miles East 4.6 mph - N/A   Overcast
2:56 AM 39.9°F 37.0°F 89% 30.38 in 10.0 miles East 4.6 mph - N/A   Overcast
3:56 AM 39.9°F 36.0°F 86% 30.37 in 10.0 miles East 5.8 mph - N/A   Overcast
4:15 AM 39.2°F 35.6°F 87% 30.36 in 10.0 miles East 6.9 mph - N/A   Overcast
4:56 AM 39.0°F 36.0°F 89% 30.35 in 10.0 miles East 9.2 mph - N/A   Overcast
5:56 AM 39.0°F 36.0°F 89% 30.34 in 10.0 miles East 10.4 mph - N/A   Overcast
6:56 AM 39.9°F 36.0°F 86% 30.32 in 10.0 miles East 10.4 mph - N/A   Overcast
7:56 AM 41.0°F 36.0°F 82% 30.32 in 10.0 miles East 10.4 mph - N/A   Overcast
8:56 AM 42.1°F 36.0°F 79% 30.30 in 10.0 miles SE 17.3 mph 25.3 mph N/A   Mostly Cloudy
9:56 AM 44.1°F 36.0°F 73% 30.29 in 10.0 miles SE 20.7 mph 27.6 mph N/A   Mostly Cloudy
10:56 AM 46.0°F 36.0°F 68% 30.27 in 10.0 miles SE 18.4 mph 26.5 mph N/A   Overcast
11:56 AM 46.0°F 36.0°F 68% 30.25 in 10.0 miles SE 24.2 mph 29.9 mph N/A   Overcast
12:56 PM 46.9°F 37.0°F 68% 30.22 in 10.0 miles SSE 28.8 mph 35.7 mph N/A   Overcast
1:56 PM 46.9°F 37.0°F 68% 30.20 in 10.0 miles SSE 31.1 mph 39.1 mph N/A   Overcast
2:56 PM 46.9°F 36.0°F 66% 30.16 in 10.0 miles SSE 31.1 mph 41.4 mph N/A   Overcast
3:56 PM 46.9°F 36.0°F 66% 30.13 in 10.0 miles SSE 34.5 mph 44.9 mph N/A   Overcast
4:56 PM 46.0°F 36.0°F 68% 30.11 in 10.0 miles SE 27.6 mph 43.7 mph N/A   Overcast
5:56 PM 46.0°F 37.0°F 71% 30.08 in 10.0 miles SE 29.9 mph 41.4 mph N/A   Overcast
6:09 PM 46.4°F 37.4°F 71% 30.06 in 10.0 miles SE 34.5 mph 41.4 mph 0.00 in Rain Light Rain
6:56 PM 45.0°F 37.0°F 74% 30.04 in 10.0 miles SE 25.3 mph 38.0 mph 0.00 in   Overcast
7:56 PM 46.0°F 36.0°F 68% 29.99 in 10.0 miles SSE 33.4 mph 46.0 mph N/A   Overcast
8:56 PM 46.0°F 36.0°F 68% 29.96 in 10.0 miles SSE 32.2 mph 44.9 mph N/A   Overcast
9:56 PM 46.0°F 35.1°F 66% 29.93 in 10.0 miles SSE 35.7 mph 51.8 mph N/A   Overcast
10:56 PM 44.1°F 36.0°F 73% 29.91 in 10.0 miles SSE 34.5 mph 48.3 mph 0.00 in Rain Light Rain
11:05 PM 44.6°F 35.6°F 71% 29.90 in 10.0 miles SSE 35.7 mph 47.2 mph 0.00 in   Overcast
11:22 PM 44.6°F 35.6°F 71% 29.89 in 10.0 miles SSE 32.2 mph 43.7 mph 0.00 in Rain Light Rain
11:31 PM 44.6°F 35.6°F 71% 29.88 in 10.0 miles SSE 29.9 mph 43.7 mph 0.00 in   Overcast
11:56 PM 45.0°F 35.1°F 68% 29.89 in 10.0 miles SSE 33.4 mph 44.9 mph 0.00 in   Overcast
Moon Phase
Feb. 24 Feb. 25 Mar. 04 Mar. 11 Mar. 19
Sunrise:07:00 AM (PST) Moon Rise:05:04 PM (PST)2/24
Sunset:05:47 PM (PST) Moon Set:06:02 AM (PST)2/24

Copyright © 2014 The Weather Underground, Inc.